TimeCST,TemperatureF,Dew PointF,Humidity,Sea Level PressureIn,VisibilityMPH,Wind Direction,Wind SpeedMPH,Gust SpeedMPH,PrecipitationIn,Events,Conditions,WindDirDegrees,DateUTC
12:53 AM,30.0,26.1,85,30.22,7.0,SW,3.5,-,N/A,,Overcast,220,2014-02-12 06:53:00
1:53 AM,30.0,26.1,85,30.22,7.0,West,4.6,-,N/A,,Overcast,270,2014-02-12 07:53:00
2:53 AM,30.0,26.1,85,30.22,7.0,West,5.8,-,N/A,,Overcast,280,2014-02-12 08:53:00
3:53 AM,30.0,25.0,82,30.17,7.0,Calm,Calm,-,N/A,,Overcast,0,2014-02-12 09:53:00
4:53 AM,28.9,25.0,85,30.20,6.0,West,3.5,-,N/A,,Mostly Cloudy,280,2014-02-12 10:53:00
5:53 AM,28.9,24.1,82,30.21,8.0,West,3.5,-,N/A,,Partly Cloudy,270,2014-02-12 11:53:00
6:53 AM,27.0,23.0,85,30.21,8.0,West,4.6,-,N/A,,Clear,270,2014-02-12 12:53:00
7:27 AM,24.8,21.2,86,30.18,8.0,Calm,Calm,-,N/A,,Mostly Cloudy,0,2014-02-12 13:27:00
7:53 AM,27.0,23.0,85,30.23,8.0,West,3.5,-,N/A,,Overcast,260,2014-02-12 13:53:00
8:45 AM,30.2,24.8,80,30.19,10.0,West,4.6,-,N/A,,Scattered Clouds,270,2014-02-12 14:45:00
8:53 AM,30.9,23.0,72,30.22,10.0,WSW,5.8,-,N/A,,Partly Cloudy,250,2014-02-12 14:53:00
9:53 AM,34.0,25.0,70,30.21,10.0,SW,6.9,-,N/A,,Clear,230,2014-02-12 15:53:00
10:53 AM,37.9,27.0,65,30.20,10.0,West,9.2,-,N/A,,Partly Cloudy,260,2014-02-12 16:53:00
11:53 AM,43.0,28.0,56,30.20,10.0,WNW,9.2,-,N/A,,Clear,300,2014-02-12 17:53:00
12:53 PM,46.0,28.0,50,30.15,10.0,NW,10.4,16.1,N/A,,Clear,310,2014-02-12 18:53:00
1:53 PM,48.9,28.9,46,30.11,10.0,WNW,8.1,-,N/A,,Clear,290,2014-02-12 19:53:00
2:53 PM,51.1,30.0,44,30.08,10.0,North,8.1,16.1,N/A,,Clear,350,2014-02-12 20:53:00
3:53 PM,52.0,30.9,45,30.06,10.0,North,9.2,-,N/A,,Clear,10,2014-02-12 21:53:00
4:53 PM,51.1,32.0,48,30.07,10.0,NNW,10.4,-,N/A,,Clear,340,2014-02-12 22:53:00
5:53 PM,45.0,30.9,58,30.09,10.0,North,8.1,-,N/A,,Clear,10,2014-02-12 23:53:00
6:53 PM,42.1,30.9,65,30.09,10.0,NE,6.9,-,N/A,,Clear,40,2014-02-13 00:53:00
7:53 PM,36.0,28.9,76,30.09,10.0,NE,5.8,-,N/A,,Clear,40,2014-02-13 01:53:00
8:53 PM,30.9,27.0,85,30.09,10.0,North,5.8,-,N/A,,Clear,10,2014-02-13 02:53:00
9:53 PM,30.9,28.0,89,30.08,10.0,WNW,3.5,-,N/A,,Clear,290,2014-02-13 03:53:00
10:53 PM,26.1,24.1,92,30.08,9.0,WNW,3.5,-,N/A,,Clear,290,2014-02-13 04:53:00
11:53 PM,27.0,26.1,96,30.06,9.0,Calm,Calm,-,N/A,,Clear,0,2014-02-13 05:53:00